NSS-10

Last updated on Tue Sep 22 2026 00:03:10 GMT+0000 (Coordinated Universal Time)

1 28526U 05003A 26264.33913667 -.00000252 00000+0 00000+0 0 9997 2 28526 6.6848 69.2466 0003135 101.9088 273.7332 1.00272171 54129
UTC large
Height (km)
Speed (km/s)
/
Latitude / Longitude
Inclination (degrees)
Orbital Period (minutes)
Azimuth
Elevation
Range (km)
Doppler Factor

Next 0 passes for location: London (51.5072 / 0.1276)

No passes found over London.
NSS-10